Погода в Пунта-дель-Эсте

Уругвай     34°55′37″S   54°56′55″W
темп.,
°C
ветер,
м/с
пор.,
м/с
влажн.,
%
обл.,
%
осадки,
мм/ч
давл.,
гПа
погр.,
м
9 августа, вт
вт900:00+11вюв5773100 0.1 1030160
03:00+11вюв6774100 0.2 1030198
06:00+11юв678072 0.0 1030477
09:00+11юв568013 0.0 1032569
12:00+11юв67754 0.0 1032658
15:00+11юв66740 0.0 1031537
18:00+11юв55740 0.0 1030510
21:00+11юв55772 0.0 1031575
10 августа, ср
ср1000:00+11вюв45720 0.0 1031628
03:00+10вюв23660 0.0 1030353
06:00+10всв22700 0.0 1029242
09:00+10ююв11730 0.0 1030166
12:00+10ююв22730 0.0 1029252
15:00+11вюв557252 0.0 1027297
18:00+11в5680100 0.0 1026240
21:00+10всв5781100 0.0 1026229
11 августа, чт
чт1100:00+9св5779100 0.0 1026199
03:00+9ссв468121 0.0 1026147
06:00+9с44850 0.0 1025128
09:00+9ссз44850 0.0 1026149
12:00+12зсз22770 0.0 102655
15:00+12юв11740 0.0 102328
18:00+14ссв34690 0.0 102224
21:00+11ссв58815 0.0 1022140
12 августа, пт
пт1200:00+10ссв59805 0.0 1022188
03:00+10ссв59835 0.0 1021200
06:00+10ссв5108812 0.0 1021232
09:00+10ссв61086100 0.0 1021254
12:00+14ссв6774100 0.0 102072
15:00+15ссв4472100 0.0 101728
18:00+14св4580100 0.0 101628
21:00+13ссв5788100 0.0 101771
13 августа, сб
сб1300:00+12ссв46920 0.0 101762
03:00+12с57923 0.3 101772
06:00+12ссз33931 0.6 101731
09:00+12сз22925 0.6 101920
12:00+12ю11925 0.0 101911
15:00+14вюв33875 0.0 101753
18:00+13в57895 0.0 101755
21:00+13всв68913 0.0 101884